Погода в Чилливаке

Канада     49°10′11″N   121°57′08″W
темп.,
°C
ветер,
м/с
пор.,
м/с
влажн.,
%
обл.,
%
осадки,
мм/ч
давл.,
гПа
погр.,
м
13 апреля, вт
вт1323:00+3ссв37610 0.0 1030128
02:00+2ссв47650 0.0 1031140
05:00+1ссв47650 0.0 1031139
08:00+4ссв36570 0.0 1031201
11:00+12св24300 0.0 10291484
14:00+16в24220 0.0 10262006
17:00+16юв23250 0.0 10251603
20:00+7зсз11692 0.0 102610
14 апреля, ср
ср1423:00+5ссв24715 0.0 102666
02:00+3ссв36680 0.0 1026105
05:00+3ссв36670 0.0 1026108
08:00+6ссв36580 0.0 1025190
11:00+15св24312 0.0 1022963
14:00+20св13220 0.0 10191761
17:00+19юв13262 0.0 10181673
20:00+10ссз11714 0.0 101910
15 апреля, чт
чт1523:00+7ссв24705 0.0 102056
02:00+6ссв35720 0.0 102075
05:00+5ссв35720 0.0 102088
08:00+9ссв35634 0.0 1020176
11:00
14:00+21ююз22280 0.0 10181543
17:00+20юз32400 0.0 1017734
20:00+12зюз11782 0.0 101810
16 апреля, пт
пт1623:00+10ссв22850 0.0 102026
02:00+9ссв23790 0.0 102148
05:00+7ссв23750 0.0 102355
08:00+11св24620 0.0 1023148
11:00+19юв01370 0.0 1021713
14:00+22ююз22310 0.0 10211343
17:00+21ююз32390 0.0 10201023
20:00+13зюз11790 0.0 102111
17 апреля, сб
сб1723:00+11ссв22840 0.0 102239
02:00+11ссв23800 0.0 102257
05:00+9ссв24750 0.0 102363
08:00+13ссв24634 0.0 1022141
11:00+21в113869 0.0 1021677
14:00+23ююз2235100 0.0 10201200
17:00+23юз223938 0.0 1019916
20:00+15зюз11770 0.0 102011